FW7564 Weather Reports


time (UTC)temp
C
wind
direction
speed
KPH
gust
KPH
rain 1hr
cm
rain 24hr
cm
rain mn
cm
humidity
%
barometer
mb
20260507160122 16 180 16.1 32.2 0.00 0.00 0.03 10 1014.2
20260507155613 16 113 11.3 27.4 0.00 0.00 0.03 10 1014.2
20260507155103 16 203 9.7 33.8 0.00 0.00 0.03 10 1014.3
20260507154552 16 180 11.3 33.8 0.00 0.00 0.03 10 1014.4
20260507154042 16 248 16.1 37.0 0.00 0.00 0.03 10 1014.3
20260507153532 16 203 9.7 37.0 0.00 0.00 0.03 10 1014.5
20260507152002 16 180 11.3 33.8 0.00 0.00 0.03 10 1014.3
20260507151452 16 203 11.3 33.8 0.00 0.00 0.03 10 1014.3
20260507150941 16 225 14.5 35.4 0.00 0.00 0.03 10 1014.7
20260507150431 16 293 11.3 37.0 0.00 0.00 0.03 10 1014.3
20260507145921 16 158 16.1 37.0 0.00 0.00 0.03 10 1014.2
20260507144901 15 248 19.3 48.3 0.00 0.00 0.03 10 1013.9
20260507144351 15 338 14.5 40.2 0.00 0.00 0.03 10 1014.2
20260507143842 15 270 17.7 37.0 0.00 0.00 0.03 10 1014.1
20260507143331 15 180 12.9 33.8 0.00 0.00 0.03 10 1014.0
20260507142823 14 270 9.7 35.4 0.00 0.00 0.03 10 1013.5
20260507142313 15 203 11.3 35.4 0.00 0.00 0.03 10 1013.9
20260507141801 14 180 12.9 35.4 0.00 0.00 0.03 10 1014.2
20260507141250 14 203 9.7 38.6 0.00 0.00 0.03 10 1014.0
20260507140740 14 158 12.9 38.6 0.00 0.00 0.03 10 1014.2
20260507140230 14 248 12.9 32.2 0.00 0.00 0.03 10 1014.2
20260507135720 13 180 11.3 37.0 0.00 0.00 0.03 10 1013.9
20260507135209 13 248 8.0 38.6 0.00 0.00 0.03 10 1014.2
20260507134659 13 203 22.5 46.7 0.00 0.00 0.03 10 1014.4
20260507134149 13 270 11.3 46.7 0.00 0.00 0.03 10 1014.3
20260507133643 13 270 22.5 37.0 0.00 0.00 0.03 10 1013.6
20260507133133 13 180 17.7 43.5 0.00 0.00 0.03 10 1013.7
20260507132623 13 248 14.5 43.5 0.00 0.00 0.03 10 1013.9
20260507132113 13 248 16.1 37.0 0.00 0.00 0.03 10 1013.6
20260507131603 13 248 16.1 33.8 0.00 0.00 0.03 10 1013.7
20260507131052 13 203 14.5 29.0 0.00 0.00 0.03 10 1013.7
20260507130542 13 270 16.1 29.0 0.00 0.00 0.03 10 1013.6
20260507125522 13 225 12.9 33.8 0.00 0.00 0.03 10 1013.5
20260507125011 13 203 17.7 40.2 0.00 0.00 0.03 10 1013.1
20260507124501 13 158 22.5 40.2 0.00 0.00 0.03 10 1013.4
20260507123952 12 203 12.9 35.4 0.00 0.00 0.03 10 1013.3
20260507123442 13 293 11.3 32.2 0.00 0.00 0.03 10 1014.0
20260507122932 13 270 11.3 32.2 0.00 0.00 0.03 10 1014.3
20260507121911 13 270 9.7 25.7 0.00 0.00 0.03 10 1014.2
20260507120850 13 180 3.2 37.0 0.00 0.00 0.03 10 1014.3
20260507120341 13 225 6.4 37.0 0.00 0.00 0.03 10 1014.2
20260507115831 13 203 16.1 33.8 0.00 0.00 0.03 10 1014.1
20260507115321 13 293 4.8 33.8 0.00 0.00 0.03 10 1013.9
20260507114812 13 248 14.5 27.4 0.00 0.00 0.03 10 1013.7
20260507114300 13 225 12.9 27.4 0.00 0.00 0.03 10 1013.3
20260507113750 13 225 14.5 33.8 0.00 0.00 0.03 10 1012.7
20260507113240 13 225 17.7 33.8 0.00 0.00 0.03 10 1012.2
20260507112731 13 225 8.0 32.2 0.00 0.00 0.03 10 1012.0
20260507112219 14 270 8.0 32.2 0.00 0.00 0.03 10 1012.4
20260507111709 14 225 14.5 29.0 0.00 0.00 0.03 10 1012.0
20260507111159 14 203 14.5 29.0 0.00 0.00 0.03 10 1011.9
20260507110649 14 225 14.5 33.8 0.00 0.00 0.03 10 1011.7
20260507110139 14 248 9.7 35.4 0.00 0.00 0.03 10 1011.7
20260507105629 14 270 11.3 35.4 0.00 0.00 0.03 10 1011.9
20260507104611 15 180 16.1 38.6 0.00 0.00 0.03 10 1011.5
20260507104058 15 180 17.7 32.2 0.00 0.00 0.03 10 1011.0
20260507103549 15 203 14.5 32.2 0.00 0.00 0.03 10 1011.4
20260507103045 15 135 12.9 38.6 0.00 0.00 0.03 10 1011.4
20260507102529 15 180 16.1 38.6 0.00 0.00 0.03 10 1010.9
20260507102018 15 248 12.9 35.4 0.00 0.00 0.03 10 1011.0
20260507101515 15 225 20.9 35.4 0.00 0.00 0.03 10 1010.9
20260507100448 16 203 12.9 27.4 0.00 0.00 0.03 10 1011.4
20260507095938 16 248 6.4 27.4 0.00 0.00 0.03 10 1012.0
20260507095430 16 225 9.7 24.1 0.00 0.00 0.03 10 1011.4
20260507094917 16 293 8.0 29.0 0.00 0.00 0.03 10 1011.1
20260507094404 16 180 6.4 32.2 0.00 0.00 0.03 10 1011.0
20260507093347 16 203 14.5 29.0 0.00 0.00 0.03 10 1010.8
20260507092837 15 225 6.4 29.0 0.00 0.00 0.03 10 1011.0
20260507091817 16 270 14.5 48.3 0.00 0.00 0.03 10 1011.0
20260507091306 16 248 11.3 48.3 0.00 0.00 0.03 10 1011.2
20260507090757 16 248 22.5 49.9 0.00 0.00 0.03 10 1011.2
20260507090246 16 203 14.5 49.9 0.00 0.00 0.03 10 1011.2
20260507085736 16 270 11.3 29.0 0.00 0.00 0.03 10 1011.5
20260507083656 16 180 17.7 33.8 0.00 0.00 0.03 10 1010.7
20260507083147 16 203 3.2 33.8 0.00 0.00 0.03 10 1010.5
20260507082636 16 225 8.0 32.2 0.00 0.00 0.03 10 1010.6
20260507082127 16 225 14.5 32.2 0.00 0.00 0.03 10 1010.5
20260507081616 15 225 9.7 27.4 0.00 0.00 0.03 10 1010.3
20260507080556 15 158 11.3 29.0 0.00 0.00 0.03 10 1009.9
20260507080046 15 135 17.7 29.0 0.00 0.00 0.03 10 1010.0
20260507075535 15 203 8.0 29.0 0.00 0.00 0.03 10 1010.3
20260507075025 16 158 6.4 38.6 0.00 0.00 0.03 10 1010.3
20260507074515 16 180 11.3 38.6 0.00 0.00 0.03 10 1010.6
20260507074005 16 248 17.7 37.0 0.00 0.00 0.03 10 1010.7
20260507072944 16 203 9.7 29.0 0.00 0.00 0.03 10 1010.8
20260507072435 16 248 8.0 32.2 0.00 0.00 0.03 10 1010.6
20260507071924 16 180 12.9 32.2 0.00 0.00 0.03 10 1010.5
20260507070151 16 225 14.5 0.0 0.00 0.00 0.03 10 1010.8
20260507065555 16 203 19.3 37.0 0.00 0.05 0.03 10 1010.6
20260507064535 17 225 17.7 43.5 0.00 0.05 0.03 10 1010.5
20260507064025 17 203 17.7 43.5 0.00 0.05 0.03 10 1011.0
20260507063004 17 203 16.1 40.2 0.00 0.05 0.03 10 1010.8
20260507062454 17 270 17.7 40.2 0.00 0.05 0.03 10 1010.7
20260507061945 17 248 12.9 38.6 0.00 0.05 0.03 10 1010.7
20260507061434 17 203 17.7 38.6 0.00 0.05 0.03 10 1010.7
20260507060925 17 270 6.4 33.8 0.00 0.05 0.03 10 1010.5
20260507060414 17 248 12.9 29.0 0.00 0.05 0.03 10 1010.3
20260507055904 17 180 12.9 25.7 0.00 0.05 0.03 10 1010.4
20260507055353 17 225 8.0 29.0 0.00 0.05 0.03 10 1010.4
20260507054844 18 225 16.1 32.2 0.00 0.05 0.03 10 1010.4
20260507054333 18 293 11.3 32.2 0.00 0.05 0.03 10 1010.3
20260507053823 18 203 11.3 43.5 0.00 0.05 0.03 10 1010.5
20260507053314 18 203 12.9 43.5 0.00 0.05 0.03 10 1010.6
20260507052803 18 248 16.1 24.1 0.00 0.05 0.03 10 1010.5
20260507052253 18 203 11.3 24.1 0.00 0.05 0.03 10 1010.5
20260507051746 18 225 6.4 24.1 0.00 0.05 0.03 10 1010.5
20260507051233 18 158 8.0 24.1 0.00 0.05 0.03 10 1010.5
20260507050723 18 203 12.9 24.1 0.00 0.05 0.03 10 1010.2
20260507050213 18 225 6.4 24.1 0.00 0.05 0.03 10 1010.1
20260507045703 18 315 11.3 25.7 0.03 0.05 0.03 10 1010.0
20260507045153 18 180 8.0 25.7 0.03 0.05 0.03 10 1009.9
20260507044642 18 248 6.4 20.9 0.03 0.05 0.03 10 1009.9
20260507044133 18 203 8.0 22.5 0.03 0.05 0.03 10 1010.1
20260507043623 18 203 6.4 25.7 0.03 0.05 0.03 10 1010.1
20260507043112 18 203 11.3 25.7 0.03 0.05 0.03 10 1009.6
20260507042602 18 225 12.9 25.7 0.03 0.05 0.03 10 1010.0
20260507041542 18 248 12.9 29.0 0.03 0.05 0.03 10 1009.6
20260507041031 18 158 14.5 29.0 0.03 0.05 0.03 10 1009.4
20260507040522 18 203 11.3 29.0 0.03 0.05 0.03 10 1010.1
20260507040011 19 113 16.1 29.0 0.03 0.05 0.03 10 1010.0
20260507035501 19 248 11.3 27.4 0.00 0.03 0.00 10 1009.6
20260507034952 19 248 6.4 24.1 0.00 0.03 0.00 10 1010.2
20260507034443 19 270 8.0 24.1 0.00 0.03 0.00 10 1009.2
20260507033932 19 248 12.9 24.1 0.00 0.03 0.00 10 1008.9
20260507033421 18 158 6.4 29.0 0.00 0.03 0.00 10 1009.4
20260507032912 19 203 8.0 29.0 0.00 0.03 0.00 10 1009.0
20260507032401 20 225 12.9 29.0 0.00 0.03 0.00 10 1008.7
20260507030831 20 203 11.3 27.4 0.00 0.03 0.00 10 1009.1
20260507030320 20 203 8.0 24.1 0.00 0.03 0.00 10 1009.1
20260507025810 20 203 11.3 25.7 0.00 0.03 0.03 10 1008.4
20260507025300 20 180 14.5 25.7 0.00 0.03 0.03 10 1008.0
20260507023730 20 203 12.9 32.2 0.00 0.03 0.03 10 1007.7
20260507023219 20 248 12.9 24.1 0.00 0.03 0.03 10 1007.4
20260507022710 20 225 6.4 14.5 0.00 0.03 0.03 10 1008.0
20260507022200 20 248 1.6 12.9 0.00 0.03 0.03 10 1007.6
20260507021649 20 225 4.8 11.3 0.00 0.03 0.03 10 1007.8
20260507021139 20 180 3.2 11.3 0.00 0.03 0.03 10 1008.1
20260507020629 20 248 3.2 20.9 0.00 0.03 0.03 10 1007.8
20260507020120 20 158 3.2 20.9 0.00 0.03 0.03 10 1008.0
20260507015609 20 158 6.4 12.9 0.00 0.03 0.03 10 1008.0
20260507015059 20 203 3.2 12.9 0.00 0.03 0.03 10 1008.1
20260507014548 19 225 1.6 6.4 0.00 0.03 0.03 10 1007.8
20260507013018 20 225 3.2 6.4 0.00 0.03 0.03 10 1008.0
20260507012509 20 225 1.6 9.7 0.00 0.03 0.03 10 1008.0
20260507011958 20 225 3.2 9.7 0.00 0.03 0.03 10 1008.1
20260507011448 20 270 3.2 9.7 0.00 0.03 0.03 10 1007.8
20260507010938 21 203 3.2 12.9 0.00 0.03 0.03 10 1007.7
20260507010427 21 158 3.2 12.9 0.00 0.03 0.03 10 1008.0
20260507005918 20 180 4.8 12.9 0.00 0.03 0.03 10 1007.7
20260507005407 21 158 4.8 12.9 0.00 0.03 0.03 10 1007.4
20260507004857 21 180 8.0 14.5 0.00 0.03 0.03 10 1007.4
20260507004348 21 158 3.2 14.5 0.00 0.03 0.03 10 1007.4
20260507003328 21 203 1.6 11.3 0.00 0.03 0.03 10 1007.5
20260507002816 20 203 3.2 11.3 0.00 0.03 0.03 10 1007.4
20260507002306 20 180 4.8 17.7 0.00 0.03 0.03 10 1007.4
20260507001757 20 225 3.2 17.7 0.00 0.03 0.03 10 1007.4
20260507000736 21 180 9.7 20.9 0.00 0.03 0.03 10 1006.9
20260507000227 21 203 9.7 20.9 0.00 0.03 0.03 10 1007.0
20260506235717 21 248 6.4 14.5 0.00 0.03 0.03 10 1007.0
20260506235206 20 180 6.4 14.5 0.00 0.03 0.03 10 1007.0
20260506234657 21 135 3.2 12.9 0.00 0.03 0.03 10 1006.7
20260506233636 21 203 4.8 14.5 0.00 0.03 0.03 10 1006.8
20260506233125 21 270 1.6 14.5 0.00 0.03 0.03 10 1006.3
20260506232616 21 180 3.2 12.9 0.00 0.03 0.03 10 1006.3
20260506232106 21 203 6.4 11.3 0.00 0.03 0.03 10 1006.2
20260506231555 21 248 3.2 11.3 0.00 0.03 0.03 10 1006.4
20260506231045 21 203 3.2 12.9 0.00 0.03 0.03 10 1006.2
20260506230024 21 203 3.2 9.7 0.00 0.03 0.03 10 1006.3
20260506225515 21 248 1.6 6.4 0.00 0.03 0.03 10 1006.1
20260506224455 21 293 3.2 3.2 0.00 0.03 0.03 10 1005.8
20260506223434 22 68 0.0 3.2 0.00 0.03 0.03 10 1005.3
20260506222924 21 338 0.0 3.2 0.00 0.03 0.03 10 1005.2
20260506222414 22 315 0.0 3.2 0.00 0.03 0.03 10 1005.1
20260506221904 22 225 1.6 3.2 0.00 0.03 0.03 10 1004.8
20260506221355 22 158 1.6 6.4 0.00 0.03 0.03 10 1004.9
20260506220334 22 135 1.6 6.4 0.00 0.03 0.03 10 1004.8
20260506215823 22 135 0.0 3.2 0.00 0.03 0.03 10 1004.3
20260506214803 23 135 1.6 6.4 0.00 0.03 0.03 10 1004.2
20260506214254 23 158 3.2 6.4 0.00 0.03 0.03 10 1004.1
20260506213744 23 135 1.6 3.2 0.00 0.03 0.03 10 1004.2
20260506212723 23 113 1.6 3.2 0.00 0.03 0.03 10 1003.8
20260506212212 24 135 0.0 3.2 0.00 0.03 0.03 10 1004.1
20260506211703 25 113 3.2 3.2 0.00 0.03 0.03 10 1003.4
20260506210643 26 90 0.0 9.7 0.00 0.03 0.03 10 1003.5
20260506210132 26 90 4.8 9.7 0.00 0.03 0.03 10 1003.5
20260506205623 26 68 4.8 6.4 0.00 0.03 0.03 10 1003.6
20260506204602 26 68 3.2 11.3 0.00 0.03 0.03 10 1003.4
20260506204052 27 90 4.8 11.3 0.00 0.03 0.03 10 1003.4
20260506203542 26 68 6.4 9.7 0.00 0.03 0.03 10 1003.6
20260506203039 26 90 3.2 6.4 0.00 0.03 0.03 10 1003.5
20260506202522 26 135 1.6 6.4 0.00 0.03 0.03 10 1003.5
20260506202011 26 135 1.6 3.2 0.00 0.03 0.03 10 1003.6
20260506200951 26 113 0.0 3.2 0.00 0.03 0.03 10 1003.7
20260506200441 26 135 0.0 3.2 0.00 0.03 0.03 10 1004.0
20260506195931 26 135 0.0 3.2 0.00 0.03 0.03 10 1004.0
20260506195420 25 135 1.6 6.4 0.00 0.03 0.03 10 1003.7
20260506194912 25 158 3.2 6.4 0.00 0.03 0.03 10 1003.7
20260506194401 26 158 3.2 12.9 0.00 0.03 0.03 10 1003.6
20260506193852 27 113 3.2 12.9 0.00 0.03 0.03 10 1003.4
20260506192830 27 90 6.4 12.9 0.00 0.03 0.03 10 1003.8
20260506191810 26 90 3.2 9.7 0.00 0.03 0.03 10 1004.2
20260506191259 26 113 1.6 9.7 0.00 0.03 0.03 10 1004.1
20260506190749 26 90 6.4 9.7 0.00 0.03 0.03 10 1003.8
20260506190239 26 90 3.2 9.7 0.00 0.03 0.03 10 1004.1
20260506185730 25 113 3.2 9.7 0.00 0.03 0.03 10 1003.8
20260506185220 25 113 3.2 6.4 0.00 0.03 0.03 10 1004.2
20260506184709 25 113 3.2 6.4 0.00 0.03 0.03 10 1004.4
20260506184200 25 113 6.4 6.4 0.00 0.03 0.03 10 1004.5
20260506183649 25 113 3.2 3.2 0.00 0.03 0.03 10 1004.8
20260506183139 25 113 0.0 6.4 0.00 0.03 0.03 10 1004.7
20260506182629 24 135 3.2 6.4 0.00 0.03 0.03 10 1004.8
20260506182118 23 113 3.2 6.4 0.00 0.03 0.03 10 1004.8
20260506181610 23 90 4.8 9.7 0.00 0.03 0.03 10 1004.9
20260506181101 23 113 3.2 9.7 0.00 0.03 0.03 10 1005.2
20260506180038 23 113 3.2 6.4 0.00 0.03 0.03 10 1005.5
20260506175529 23 135 4.8 9.7 0.00 0.03 0.03 10 1005.8
20260506175018 22 113 3.2 9.7 0.00 0.03 0.03 10 1005.6
20260506174514 22 113 6.4 9.7 0.00 0.03 0.03 10 1006.0
20260506173959 22 135 4.8 9.7 0.00 0.03 0.03 10 1006.2
20260506173447 23 113 4.8 11.3 0.00 0.03 0.03 10 1006.1
20260506172938 23 68 3.2 11.3 0.00 0.03 0.03 10 1006.2
20260506172428 23 68 4.8 14.5 0.00 0.03 0.03 10 1006.3
20260506171917 22 68 11.3 14.5 0.00 0.03 0.03 10 1006.4
20260506170857 23 23 6.4 14.5 0.00 0.03 0.03 10 1006.5
20260506170347 23 68 4.8 14.5 0.00 0.03 0.03 10 1006.7
20260506165837 22 68 11.3 14.5 0.00 0.03 0.03 10 1006.8
20260506165327 22 68 3.2 17.7 0.00 0.03 0.03 10 1006.9
20260506164816 22 68 6.4 17.7 0.00 0.03 0.03 10 1007.0
20260506164308 22 45 11.3 20.9 0.00 0.03 0.03 10 1006.8
20260506163757 22 68 8.0 20.9 0.00 0.03 0.03 10 1007.1
20260506162736 22 23 4.8 25.7 0.00 0.03 0.03 10 1007.2
20260506162226 22 45 8.0 20.9 0.00 0.03 0.03 10 1006.9
20260506161716 21 68 9.7 20.9 0.00 0.03 0.03 10 1007.4
20260506161207 22 45 9.7 27.4 0.00 0.03 0.03 10 1007.5
20260506160655 21 68 19.3 27.4 0.00 0.03 0.03 10 1007.2